STARLINK-32742, 62605

Orbit data source: Space-Track

STARLINK-32742, 62605 is a payload satellite owned by SpaceX/Seattle (US) in LEO that was launched on Mon, 13 Jan 2025 UTC via an FALCON 9 launch vehicle from the Air Force Eastern Test Range (AFETR). Payload-class satellites include a variety of spacecraft equipped with specific instruments for various scientific and technological missions. These include communications satellites like Starlink; space stations such as the ISS; scientific satellites like the Hubble; Earth observation satellites from companies like Planet Labs, Umbra, and HawkEye 360; GPS; miniature CubeSats for education and research; and military/defense satellites.

Loading next visibility...
Identifier
62605, 2025-008U
Orbit
LEO
Last TLE update
13 hours ago
Origin
Manufacturer
SpaceX/Seattle
Mission
Operational Commercial Communications
Bus & Motor
STARLINK V2M, Unknown motor
Mass
730 kg wet, ~700 kg dry
Launch date (UTC)
2025-01-13 (6 months ago)
Launch vehicle
FALCON 9
Launch site
Air Force Eastern Test Range (AFETR)
Object type
Payload
Rocket body
Debris
Shape & HBR
Box + 2 Pan, 29 m
Radar Cross Section
33.884 m², Large (>1 m²)

Expand to show TLE details & history

TLE from 13 hours ago
0 STARLINK-32742
1 62605U 25008U   25188.79112662  .00017194  00000-0  63296-3 0  9993
2 62605  42.9947 220.6896 0000654  38.8200 321.2698 15.27575269 28162
Epoch: 2025-07-07T18:59Z
TLE epoch observation values (Epoch: 2025-07-07T18:59:13.339Z)
Latitude
-0.00007°
Longitude
9.88855°
Altitude
482.488 km
Speed
7.626 km/s
True Right ascension
14h 42m 45s
True Declination
0° 00' 00"
Sunlit
Object was in partial shadow at epoch
Visualization orbit readout
Latitude
39.66052°
Longitude
124.65315°
Altitude
485.24 km
Speed
7.628 km/s
Apparent Right ascension
02h 45m 31s
Apparent Declination
5° 31' 43"
Sunlit
Object is in daylight
Visualization observer readout
Local Sidereal Time
20:07:09
Azimuth
79.59° E
Elevation
-3.749°
Doppler factor
1
Orbital elements
Apogee altitude
485.458 km
Perigee altitude
484.56 km
Semi-major axis
6,863.146 km
Eccentricity
0.00007
Inclination
42.9947°
RAAN
220.6896°
Arg. of periapsis
38.82°
True anomaly
Unknown
Mean anomaly
321.2698°
Eccentric anomaly
Unknown
Mean motion
3.81732 °/min
Orbital period
94.31 mins
BSTAR
0.00063296
Loading maneuver chart data...
Loading SW <> Apogee altitude chart data...
Loading historical data...
Loading historical data...
Loading historical data...
Loading historical data...
Loading historical data...
Loading historical data...
Loading historical data...

STARLINK-32742 Visibility forecast

Observer location: undefined°, undefined°

Span
Click to sort rows by Start time (UTC) header in descending order
Start Az.
Max El. time (UTC)
Max El. Az.
Max El.
End time (UTC)
End Az.
6 mins2025-07-08 09:30:29.962Z290.49° WNW2025-07-08 09:33:29.962Z354.179° N42.273°2025-07-08 09:36:29.962Z93.603° ESE
5 mins2025-07-08 11:10:29.962Z265.577° W2025-07-08 11:12:29.962Z209.551° SW31.744°2025-07-08 11:15:29.962Z143.198° SSE
5 mins2025-07-09 05:45:29.962Z233.821° WSW2025-07-09 05:47:29.962Z172.965° S42.221°2025-07-09 05:50:29.962Z76.887° E
5 mins2025-07-09 07:24:29.962Z283.531° WNW2025-07-09 07:26:29.962Z341.554° N38.792°2025-07-09 07:29:29.962Z69.355° E
|